User: anonymous   Login
Location: Zagreb
(45.8000°N, 16.0000°E)
Time: 08:32:44
(UTC+01:00)
Language:

Courier 1B - Orbit

View from above orbital plane
View from above orbital plane
View from above satellite
View from above satellite

Ground track
Ground track

The orbit data is extracted from the following two-line orbital elements,

1    58U 60013A   20299.92920781 +.00000091 +00000-0 +12657-4 0  9998
2    58 028.3255 152.6917 0164928 069.5044 292.3121 13.46323706956217
Epoch (UTC): 25 October 2020 22:18:03
Eccentricity: 0.0164928
inclination: 28.3255°
perigee height: 963 km
apogee height: 1209 km
right ascension of ascending node: 152.6917°
argument of perigee: 69.5044°
revolutions per day: 13.46323706
mean anomaly at epoch: 292.3121°
orbit number at epoch: 95621

The dashed part of the orbit path shows where the satellite is in the earth's shadow,  

DLR